METEOR 2-7 DEB, 43300

Orbit data source: Space-Track

METEOR 2-7 DEB, 43300 is space debris in LEO originally from a launch on Thu, 14 May 1981 UTC launched from the Plesetsk Missile And Space Complex (PKMTR). Debris objects in space refer to the collection of defunct objects orbiting the Earth. Examples of debris include non-operational satellites, rocket bodies, and fragments generated from explosions, collisions, or faulty payload assembly.

Loading next visibility...
Identifier
43300, 1981-043X
Orbit
LEO
Country
Flag of CISCIS
Related business
Manufacturer
Unknown
Mission
Spacecraft
Bus & Motor
Unknown
Mass
Unknown
Launch date (UTC)
1981-05-14 (45 years ago)
Launch vehicle
Unknown
Launch site
Plesetsk Missile And Space Complex (PKMTR)
Object type
Payload
Rocket body
Debris
Shape & HBR
Unknown shape, 0.1 m
Radar Cross Section
Small (<0.1 m²)

Expand to show TLE details & history
Last TLE update: 2 days ago

TLE from 2 days ago
0 METEOR 2-7 DEB
1 43300U 81043X   25339.18474843  .00014681  00000-0  54362-2 0  9999
2 43300  81.2552 252.2438 0029638 229.3764 130.4841 14.31977248527508
Epoch: 2025-12-05T04:26Z
TLE epoch observation values (Epoch: 2025-12-05T04:26:02.264Z)
Latitude
-0.00002°
Longitude
111.50389°
Altitude
801.882 km
Speed
7.445 km/s
True Right ascension
16h 48m 58s
True Declination
0° 00' 00"
Sunlit
Object was in daylight at epoch
Visualization orbit readout
Latitude
Unknown
Longitude
Unknown
Altitude
Unknown
Speed
Unknown
Apparent Right ascension
Unknown
Apparent Declination
Unknown
Sunlit
N/A
Visualization observer readout
Local Sidereal Time
11:03:33
Azimuth
Unknown
Elevation
Unknown
Doppler factor
Unknown
Orbital elements
Apogee altitude
803.496 km
Perigee altitude
761.052 km
Semi-major axis
7,160.411 km
Eccentricity
0.00296
Inclination
81.2552°
RAAN
252.2438°
Arg. of periapsis
229.3764°
True anomaly
130.74179°
Mean anomaly
130.4841°
Eccentric anomaly
130.61301°
Mean motion
3.58209 °/min
Orbital period
100.5 mins
BSTAR
0.0054362
Loading maneuver chart data...
Computing Atmospheric mass density...
Loading historical data...
Loading historical data...
Loading historical data...
Loading historical data...
Loading historical data...
Loading historical data...
Loading historical data...

Documentation

Showing up to 5 results
|